Flag for Canada Weather past 2 weeks in Cornwall, Ontario, Canada

Now
74 °F

Mild.


Feels Like: 77 °F
Forecast: N/A
Wind: 12 mph from Southwest

Location: St Anicet

Current Time: Jul 25, 2014 at 7:52:05 PM

Latest Report: Jul 25, 2014 at 7:00 PM


Visibility: N/A

Pressure: 29.88 "Hg

Humidity: 55%

Dew point: 56 °F

Location of CornwallLocation

Historic Weather in Cornwall — Graph

°F

Cornwall temperature yesterday

Maximum temperature yesterday: 72 °F (at 5:00 PM)
Minimum temperature yesterday: 58 °F (at 6:00 AM)
Average temperature yesterday: 65 °F

Past Weeks' High & Low Weather Summary

 TemperatureHumidityPressure
High85 °F (Jul 21, 3:00 PM)100% (Jul 16, 12:00 AM)30.26 "Hg (Jul 16, 12:00 AM)
Low51 °F (Jul 19, 5:00 AM)37% (Jul 18, 4:00 PM)29.67 "Hg (Jul 13, 6:00 PM)
Average69 °F74%29.98 "Hg
* Reported Jul 10 6:00 PM — Jul 25 6:00 PM, Cornwall, Weather by CustomWeather, © 2014

Note: Actual official high and low records may vary slightly from our data, if they occured in-between our weather recording intervals... More about our weather records

Advertising

Cornwall weather history for previous 24 hours

 ConditionsComfort  
Time TempWeatherWind HumidityBarometerVisibility
6:00 PM
Jul 25
76 °FMild.10 mph56%29.87 "HgN/A
5:00 PM77 °FMild.9 mph53%29.88 "HgN/A
4:00 PM77 °FMild.10 mph51%29.90 "HgN/A
3:00 PM77 °FMild.13 mph55%29.90 "HgN/A
2:00 PM76 °FMild.14 mph57%29.92 "HgN/A
1:00 PM76 °FMild.9 mph61%29.93 "HgN/A
12:00 PM74 °FMild.8 mph64%29.93 "HgN/A
11:00 AM71 °FMild.8 mph67%29.94 "HgN/A
10:00 AM67 °FMild.10 mph67%29.95 "HgN/A
9:00 AM66 °FMild.10 mph76%29.97 "HgN/A
8:00 AM63 °FMild.9 mph82%29.96 "HgN/A
7:00 AM61 °FCool.6 mph86%29.94 "HgN/A
6:00 AM56 °FCool.5 mph97%29.93 "HgN/A
5:00 AM58 °FCool.6 mph92%29.92 "HgN/A
4:00 AM59 °FCool.6 mph89%29.93 "HgN/A
3:00 AM59 °FCool.6 mph84%29.93 "HgN/A
2:00 AM60 °FCool.7 mph80%29.92 "HgN/A
1:00 AM60 °FCool.8 mph76%29.93 "HgN/A
12:00 AM60 °FCool.6 mph77%29.93 "HgN/A
11:00 PM
Jul 24
60 °FCool.5 mph80%29.92 "HgN/A
10:00 PM62 °FCool.5 mph71%29.90 "HgN/A
9:00 PM62 °FCool.3 mph81%29.90 "HgN/A
8:00 PM67 °FMild.3 mph68%29.90 "HgN/A
7:00 PM70 °FMild.5 mph54%29.91 "HgN/A
Weather by CustomWeather, © 2014

See weather overviewHow to use our weather pages